Weather History for KDEN - November, 2010

Change the Weather History Date:

Friday, November 19, 2010

  Actual Average Record
Temperature  
Mean Temperature 42 °F 37 °F  
Max Temperature 59 °F 50 °F 79 °F (1989)
Min Temperature 25 °F 23 °F -2 °F (1961)
Degree Days  
Heating Degree Days 23 28  
Month to date heating degree days 420 461  
Since 1 July heating degree days 755 1042  
Cooling Degree Days 0 0  
Month to date cooling degree days 0 0  
Year to date cooling degree days 870 769  
Moisture  
Dew Point 21 °F    
Average Humidity 51    
Maximum Humidity 85    
Minimum Humidity 17    
Precipitation  
Precipitation 0.00 in 0.02 in 0.53 in (1956)
Month to date precipitation 0.47 0.43  
Year to date precipitation 12.62 13.77  
Snow  
Snow 0.00 in - - ()
Month to date snowfall 1.5  
Since 1 July snowfall 1.5  
Since 1 September snowfall 1.5  
Snow Depth 0.00 in    
Sea Level Pressure  
Sea Level Pressure 29.82 in    
Wind  
Wind Speed 9 mph (NW)    
Max Wind Speed 17 mph    
Max Gust Speed 20 mph    
Visibility 10 miles    
Events      
T = Trace of Precipitation, MM = Missing Value Source: NWS Daily Summary

Daily Weather History Graph

Daily Weather History Graph

Search for Another Location

Airport or City:

Trip Planner

Search our weather history database for the weather conditions in past years. The results will help you decide how hot, cold, wet, or windy it might be!

Date:

Astronomy

Nov. 19, 2010 Rise Set
Actual Time 6:48 AM MST 4:39 PM MST
Civil Twilight 6:18 AM MST 5:08 PM MST
Nautical Twilight 5:45 AM MST 5:41 PM MST
Astronomical Twilight 5:13 AM MST 6:13 PM MST
Moon 3:11 PM MST (11/19) 4:48 AM MST (11/19)
Length of Visible Light 10h 50m
Length of Day
9h 51m
Waxing Gibbous, 96% of the Moon is Illuminated
Nov 19
Waxing Gibbous
Nov 21
Full
Nov 28
Last Quarter
Dec 5
New
Dec 13
First Quarter

Hourly Weather History & Observations

Time (MST) Temp. Windchill Dew Point Humidity Pressure Visibility Wind Dir Wind Speed Gust Speed Precip Events Conditions
12:53 AM 52.0 °F - 8.1 °F 17% 29.73 in 10.0 mi Calm Calm - N/A   Mostly Cloudy
1:53 AM 50.0 °F - 8.1 °F 18% 29.75 in 10.0 mi WNW 3.5 mph - N/A   Mostly Cloudy
2:53 AM 45.0 °F - 10.0 °F 24% 29.79 in 10.0 mi Calm Calm - N/A   Mostly Cloudy
3:53 AM 46.9 °F - 9.0 °F 21% 29.79 in 10.0 mi West 3.5 mph - N/A   Mostly Cloudy
4:53 AM 41.0 °F 35.2 °F 14.0 °F 33% 29.81 in 10.0 mi SSW 9.2 mph - N/A   Mostly Cloudy
5:53 AM 46.0 °F 43.1 °F 9.0 °F 22% 29.80 in 10.0 mi South 5.8 mph - N/A   Mostly Cloudy
6:53 AM 39.9 °F 32.5 °F 15.1 °F 36% 29.84 in 10.0 mi South 12.7 mph - N/A   Mostly Cloudy
7:53 AM 42.1 °F 36.1 °F 16.0 °F 35% 29.82 in 10.0 mi South 10.4 mph - N/A   Mostly Cloudy
8:53 AM 45.0 °F 40.6 °F 18.0 °F 34% 29.81 in 10.0 mi South 8.1 mph - N/A   Mostly Cloudy
9:53 AM 50.0 °F - 21.0 °F 32% 29.81 in 10.0 mi SSE 8.1 mph - N/A   Mostly Cloudy
10:53 AM 57.0 °F - 16.0 °F 20% 29.77 in 10.0 mi SE 9.2 mph - N/A   Mostly Cloudy
11:53 AM 48.9 °F - 25.0 °F 39% 29.78 in 10.0 mi East 12.7 mph - N/A   Mostly Cloudy
12:53 PM 51.1 °F - 26.1 °F 38% 29.74 in 10.0 mi East 15.0 mph - N/A   Mostly Cloudy
1:53 PM 48.0 °F - 28.9 °F 48% 29.75 in 10.0 mi NE 15.0 mph - N/A   Mostly Cloudy
2:53 PM 45.0 °F 38.5 °F 28.9 °F 53% 29.78 in 10.0 mi ENE 13.8 mph - N/A   Mostly Cloudy
3:53 PM 42.1 °F 37.1 °F 30.0 °F 62% 29.81 in 10.0 mi NNW 8.1 mph - N/A   Mostly Cloudy
4:53 PM 37.0 °F 30.4 °F 28.9 °F 73% 29.86 in 10.0 mi North 9.2 mph - N/A   Mostly Cloudy
4:55 PM 39.2 °F 35.0 °F 28.4 °F 65% 29.90 in 20.0 mi NNE 5.8 mph - N/A   Mostly Cloudy
5:53 PM 35.1 °F 28.6 °F 28.0 °F 76% 29.86 in 10.0 mi North 8.1 mph - N/A   Mostly Cloudy
6:53 PM 30.9 °F 23.5 °F 26.1 °F 82% 29.89 in 10.0 mi North 8.1 mph - N/A   Mostly Cloudy
7:53 PM 30.0 °F 24.1 °F 26.1 °F 85% 29.88 in 10.0 mi North 5.8 mph - N/A   Scattered Clouds
8:53 PM 30.0 °F 24.1 °F 25.0 °F 82% 29.88 in 10.0 mi West 5.8 mph - N/A   Scattered Clouds
9:53 PM 28.9 °F 21.9 °F 25.0 °F 85% 29.84 in 10.0 mi WNW 6.9 mph - N/A   Scattered Clouds
10:53 PM 28.9 °F 19.8 °F 25.0 °F 85% 29.83 in 10.0 mi WNW 10.4 mph - N/A   Scattered Clouds
11:53 PM 27.0 °F 20.5 °F 24.1 °F 89% 29.86 in 2.5 mi NW 5.8 mph - N/A   Mostly Cloudy
11:56 PM 26.6 °F 18.2 °F 24.8 °F 93% 29.87 in 1.8 mi WNW 8.1 mph - N/A   Mostly Cloudy